Retour au catalogue

STARLINK-1527

ActifCommunicationsVLEO
NORAD 46048·PAYLOAD·🇺🇸 United States

Lancé Aug 7, 2020 depuis Cape Canaveral Space Force Station

Loading…

Prochains Passages (prochaines 24 heures)

TLE

FraisSource: CelesTrak SupGP

Époque: Sep 15, 2026, 01:56 UTC

1 46048C 20055X   26258.08104167  .00040851  00000+0  13134-2 0  2583
2 46048  53.1571 312.6119 0001311  96.9032  46.4161 15.31687161    16

Suivez STARLINK-1527 en temps réel avec AllMySat

Download on the App Store